Location: Berneuil
(50.0942°N, 2.1724°E)
Time: 22:31:19
(UTC+00:00)

Daily predictions for brighter satellites

Satellite Brightness Start Highest point End
(mag) Time Altitude Azimuth Time Altitude Azimuth Time Altitude Azimuth
Cosmos 2227 Rocket 2.4 16:18:57 10° SSW 16:24:37 78° WNW 16:30:19 10° NNE
Cosmos 44 3.7 16:20:38 10° NW 16:26:05 83° SW 16:31:16 10° SE
Cosmos 1140 Rocket 4.0 16:21:58 10° N 16:26:45 36° NE 16:31:29 10° ESE
SAR-Lupe-2 3.6 16:26:52 10° SSE 16:30:22 55° ENE 16:33:53 10° N
Spot 4 Rocket 4.5 16:27:52 10° S 16:32:59 69° WSW 16:38:07 10° NNW
Cosmos 1666 3.0 16:30:18 10° N 16:33:38 38° ENE 16:36:57 10° SE
ARGOS 3.6 16:28:47 10° S 16:34:12 70° WSW 16:39:38 10° NNW
Cosmos 1603 4.2 16:31:18 10° NNW 16:36:39 39° NE 16:41:54 10° ESE
DMSP B5D2-2 4.5 16:33:39 10° NNE 16:38:37 44° E 16:43:35 10° S
PSLV R/B 4.0 16:34:44 10° S 16:38:58 69° WSW 16:43:17 10° NNW
Cosmos 1076 Rocket 3.5 16:36:34 10° N 16:40:57 72° E 16:45:17 10° SSE
CZ-2C R/B 4.2 16:37:43 10° N 16:42:25 33° WNW 16:47:02 10° SW
Meteor 1-31 Rocket 3.1 16:40:11 10° SE 16:43:37 38° ENE 16:47:05 10° N
Cosmos 1544 3.1 16:42:34 10° NNW 16:45:49 71° W 16:49:02 10° S
USA 306 3.1 16:43:59 10° W 16:46:03 32° SW 16:48:00 10° SSE
SJ-7 4.3 16:44:35 10° SSE 16:48:35 79° ENE 16:52:38 10° NNW
SL-16 R/B 3.3 16:44:15 10° NW 16:49:43 50° WSW 16:55:09 10° S
ATLAS CENTAUR R/B 2.4 16:46:00 10° WNW 16:49:48 87° NNE 16:57:12 10° SE
Cosmos 1238 Rocket 4.0 16:46:42 10° SW 16:49:58 35° WNW 16:52:54 10° N
Cosmos 1602 3.7 16:48:53 10° N 16:52:32 52° ENE 16:56:12 10° SSE
SL-8 R/B 4.5 16:49:29 10° W 16:54:08 52° SSW 16:58:46 10° SE
RESURS DK-1 3.9 16:51:50 10° N 16:54:35 17° NE 16:56:13 14° ENE
USA 305 2.8 16:50:55 10° WNW 16:54:44 75° SSW 16:58:33 10° SE
Cosmos 1607 4.1 16:50:20 10° SW 16:56:42 82° NW 17:03:13 10° NE
CZ-4B R/B 3.8 16:54:57 10° SE 16:59:37 40° ENE 17:04:12 10° N
Cosmos 1943 3.1 16:55:09 10° NNW 17:00:48 72° ENE 17:06:26 10° SE
Cosmos 1782 4.2 16:59:01 10° SE 17:01:46 19° E 17:03:03 16° ENE
Helios 1A 4.0 16:58:43 11° NE 17:01:57 26° E 17:05:25 10° SSE
Cosmos 1812 Rocket 4.3 16:58:13 10° SSE 17:02:03 31° E 17:05:56 10° NNE
ATLAS 2AS CENTAUR R/B 3.1 16:55:57 10° NW 17:02:38 43° NNE 17:08:58 10° ESE
Cosmos 1500 3.4 17:00:45 10° NNW 17:04:16 65° W 17:07:45 10° S
SMAP 3.0 17:01:34 10° SSE 17:06:14 83° ENE 17:10:55 10° NNW
Helios 1B rocket 3.4 17:02:56 10° S 17:06:46 50° W 17:10:38 10° NNW
NOAA 6 4.5 17:02:48 10° SE 17:07:29 37° ENE 17:12:11 10° N
CZ-4B R/B 3.5 17:06:02 10° SSE 17:09:36 75° ENE 17:13:16 10° N
Cosmos 407 Rocket 3.5 17:07:08 10° NNW 17:12:15 58° ENE 17:17:18 10° SE
SL-16 R/B 4.4 17:07:45 10° N 17:12:48 26° NW 17:17:50 10° WSW
Cosmos 2297 Rocket 3.9 17:08:16 10° W 17:13:01 27° NW 17:17:48 10° NNE
Radarsat Rocket 4.2 17:08:33 10° SE 17:14:05 47° ENE 17:19:59 10° N
SOZ 4.0 17:12:18 10° WSW 17:14:28 82° SSE 17:16:20 22° ENE
Cosmos 405 Rocket 4.1 17:12:25 10° SW 17:16:01 39° WNW 17:19:41 10° N
ISS -1.2 17:15:40 10° W 17:18:20 22° SW 17:21:01 10° SSE
Cosmos 2219 3.9 17:13:52 10° SW 17:19:20 51° NW 17:24:51 10° NNE
Cosmos 2251 Rocket 3.5 17:14:41 10° NNW 17:20:03 71° ENE 17:25:24 10° SSE
Cosmos 220 Rocket 4.5 17:19:46 10° N 17:23:49 37° ENE 17:27:48 10° SE
Lacrosse 5 2.9 17:25:41 10° S 17:29:56 28° SE 17:31:43 23° E
COSMO-SKYMED 1 3.2 17:29:30 23° NE 17:31:28 34° E 17:35:26 10° SSE
Cosmos-2242 2.9 17:27:11 10° S 17:31:31 77° E 17:35:51 10° NNE
Lacrosse 4 Rocket 1.9 17:28:14 10° NW 17:32:34 64° WSW 17:36:45 10° SSE
Cosmos 1833 Rocket 4.0 17:29:19 10° N 17:33:20 19° NE 17:33:48 19° NE
Cosmos 2082 4.2 17:28:49 10° SW 17:34:21 60° WNW 17:39:46 11° NNE
Cosmos 2058 Rocket 4.5 17:30:31 10° SW 17:34:40 39° WNW 17:38:49 10° N
Cosmos 1553 Rocket 4.4 17:32:37 10° N 17:38:28 37° ENE 17:44:11 10° SE
APEX 2.3 17:36:54 10° SSW 17:39:49 62° ESE 17:39:57 60° E
Meteor 2-2 Rocket 4.2 17:35:33 10° S 17:41:15 65° E 17:47:05 10° NNE
USA 234 3.5 17:37:35 23° ENE 17:41:34 53° SE 17:47:55 10° SW
Meteor 1-25 Rocket 4.2 17:36:03 10° NNW 17:41:46 89° E 17:47:21 10° S
Cosmos 2221 3.6 17:38:33 10° SSE 17:41:02 24° ESE 17:41:02 24° ESE
Cosmos 2344 3.5 17:34:57 10° SSW 17:42:21 59° SE 17:47:04 23° NE
Cosmos 1190 Rocket 4.0 17:39:04 10° NNW 17:44:22 63° ENE 17:49:37 10° SE
Cosmos 1812 2.6 17:40:57 10° SSW 17:44:37 78° W 17:47:41 15° N
Cosmos 1818 3.7 17:40:56 10° SSW 17:46:14 57° ESE 17:48:46 30° ENE
Cosmos 2026 Rocket 4.0 17:42:15 10° S 17:48:23 59° E 17:54:37 10° NNE
USA 276 2.1 17:46:01 10° WSW 17:48:03 51° SSW 17:48:03 51° SSW
Cosmos 2195 Rocket 4.4 17:49:11 10° S 17:55:29 77° E 18:01:46 10° NNE
CZ-4B R/B 4.4 18:01:43 25° NNE 18:01:43 25° NNE 18:04:51 10° N
Cosmos 1844 Rocket 2.8 17:55:06 10° S 18:00:26 50° ESE 18:02:02 38° ENE
Cosmos 2263 Rocket 3.1 17:55:12 10° SW 18:00:31 45° NW 18:05:03 14° NNE
Meteor 1-26 Rocket 4.3 17:56:18 10° SSE 18:01:38 49° E 18:04:18 28° NE
Cosmos 1766 Rocket 3.5 17:59:03 10° N 18:03:23 58° ENE 18:07:39 10° SSE
YAOGAN 1 3.3 18:07:02 37° NNE 18:07:02 37° NNE 18:09:56 10° N
Cosmos 1092 Rocket 3.8 17:59:44 10° S 18:05:52 79° E 18:12:02 10° NNE
Nadezhda 4 Rocket 4.4 17:59:58 10° SSW 18:06:02 61° WNW 18:12:06 10° N
Cosmos 1933 3.1 18:03:09 10° S 18:07:08 80° E 18:07:55 56° NNE
Cosmos 1420 Rocket 4.1 18:02:36 10° S 18:07:39 51° ESE 18:08:28 46° ENE
Cosmos 2227 4.3 18:03:18 10° SSW 18:09:03 80° WNW 18:12:32 25° NNE
Cosmos 2227 Rocket 4.2 18:05:27 10° W 18:09:37 21° NW 18:13:48 10° N
Cosmos 2082 Rocket 4.1 18:07:19 10° N 18:09:22 14° NNE 18:09:22 14° NNE
YAOGAN 3 4.4 18:06:28 10° SSE 18:10:45 68° ENE 18:15:03 10° N
ADEOS 3.4 18:05:46 10° SSE 18:10:59 83° ENE 18:16:15 10° NNW
Meteor 1-5 Rocket 4.1 18:06:46 10° N 18:12:29 81° ENE 18:18:21 10° SSE
Cosmos 1624 Rocket 4.0 18:10:24 10° S 18:15:28 53° ESE 18:15:39 53° E
BREEZE-M DEB (TANK) 3.5 18:14:10 10° W 18:15:04 25° WSW 18:15:04 25° WSW
CZ-4B R/B 3.8 18:20:41 39° N 18:20:41 39° N 18:23:22 10° N
SKYMED 2 3.5 18:18:07 40° N 18:19:41 82° WNW 18:24:02 10° SSW
SL-08 R/B 3.1 18:25:44 74° NE 18:26:06 81° ESE 18:30:44 10° SSW
Cosmos 192 4.2 18:23:00 10° SSW 18:27:54 89° E 18:28:35 67° NNE
RESURS DK-1 3.0 18:28:50 10° NNW 18:31:56 49° NW 18:31:56 49° NW
Helios 1A 4.3 18:35:01 21° NNW 18:37:17 37° WNW 18:41:06 10° SW
Cosmos 1782 3.9 18:33:38 10° SSW 18:37:21 41° WNW 18:38:16 35° NW
Cosmos 676 Rocket 4.0 18:32:56 10° NNW 18:38:16 80° WSW 18:40:04 43° SSE
ATLAS 2AS CENTAUR R/B 2.9 18:47:05 10° NW 18:53:57 67° SW 18:56:38 37° SSE
CZ-4B DEB 4.3 18:53:03 27° S 18:56:13 73° WSW 19:01:48 10° NNW
Cosmos 1241 Rocket 4.4 18:54:28 10° SSW 19:00:35 80° S 19:00:35 80° S
ADEOS Rocket 4.4 19:09:44 24° N 19:09:44 24° N 19:11:59 10° N
COSMO-SKYMED 1 4.3 19:06:43 28° NW 19:07:33 30° WNW 19:11:20 10° SW
Cosmos 2056 Rocket 4.0 19:04:04 10° SW 19:09:06 60° WNW 19:09:06 60° WNW
Cosmos 1844 4.1 19:06:42 10° SW 19:12:19 62° WNW 19:12:19 62° WNW
Lacrosse 5 2.8 19:07:28 10° WSW 19:10:56 44° WSW 19:10:56 44° WSW
COSMOS 2455 4.0 19:07:04 10° SSW 19:10:14 33° S 19:10:14 33° S
Timation 2 Rocket 4.2 19:09:33 10° SW 19:15:28 61° NW 19:15:41 60° NW
Cosmos 1833 Rocket 4.0 19:12:38 10° NNW 19:15:30 31° NNW 19:15:30 31° NNW
USA 234 3.3 19:24:56 70° NW 19:24:56 70° NW 19:31:15 10° WSW
Cosmos 1844 Rocket 4.1 19:39:27 10° WSW 19:43:44 33° WNW 19:43:44 33° WNW
Cosmos 2344 4.2 19:50:03 10° W 19:57:01 45° NNW 19:57:06 45° NNW
